Regional Weather Roundup
Issued by NWS Wakefield, VA

Home | Current Version | Previous Version | Text Only | Print | Product List | Glossary Off
Versions: 1 2 3 4 5 6 7 8 9 10 11 12 13 14 15 16 17 18 19 20 21 22 23 24 25 26 27 28 29 30 31 32 33 34 35 36 37 38 39 40 41 42 43 44 45 46 47 48 49 50

000
ASUS41 KAKQ 300615
RWRAKQ

REGIONAL WEATHER ROUNDUP
NATIONAL WEATHER SERVICE WAKEFIELD VA
200 AM EDT MON MAY 30 2016

Note: "fair" indicates few or no clouds below 12,000 feet with no
significant weather and/or obstructions to visibility. * = Denotes
station may not report precipitation (e.g., rain,snow,etc.),
thunder or fog.

VAZ042-051-052>054-056-300700-
NORTHERN VIRGINIA

CITY           SKY/WX    TMP DP  RH WIND       PRES   REMARKS
WASH NATIONAL  CLOUDY    69  66  90 NW3       30.04S
DULLES         MOCLDY    67  63  87 NW5       30.04F
FORT BELVOIR   MOCLDY    68  67  96 CALM      30.04S
QUANTICO       CLOUDY    70  68  93 SE7       30.05S
FREDERICKSBRG* CLOUDY    67  67 100 CALM      30.03F
STAFFORD*      MOCLDY    66  64  94 CALM      30.08S
WARRENTON      FAIR      65  61  85 CALM      30.04S
CULPEPER*      CLOUDY    65  65 100 CALM      30.06R
MANASSAS*      CLOUDY    68  66  94 CALM      30.04S
LEESBURG*      CLOUDY    68  66  94 CALM      30.06S
WINCHESTER     LGT RAIN  64  61  88 SW3       30.06F
FRONT ROYAL*   MOCLDY    63  63 100 CALM      30.06S
LURAY*         DRIZZLE   63  63 100 SW6       30.08S
$$

VAZ048-049-060>072-079>083-300700-
CENTRAL AND SOUTH CENTRAL VIRGINIA

CITY           SKY/WX    TMP DP  RH WIND       PRES   REMARKS
RICHMOND       CLOUDY    68  67  96 N5        30.03S
CHESTERFIELD*  MOCLDY    68  55  64 N3        30.05S
PETERSBURG*    CLOUDY    70  70 100 CALM      30.04S
HANOVER        CLOUDY    67  65  93 CALM      30.05F
TAPPAHANNOCK*  LGT RAIN  71  71 100 CALM      30.04F
QUINTON*       CLOUDY    69  69 100 NW6       30.02F
CHARLOTTSVILLE FAIR      63  59  87 CALM      30.05F
GORDONSVILLE*  FAIR      62  62 100 CALM      30.04F
ORANGE*        FAIR      64  64 100 CALM      30.07S
LOUISA*        FAIR      66  64  94 CALM      30.04F FOG
BUMPASS*       MOCLDY    64  64 100 CALM      30.04S
FARMVILLE*     DRIZZLE   64  64 100 CALM      30.03F
CREWE*         CLOUDY    67  67 100 CALM      30.04S
FORT PICKETT*  NOT AVBL
CHASE CITY*    CLOUDY    64  63  94 CALM      30.04S
CLARKSVILLE*   CLOUDY    64  64 100 CALM      30.04S
SOUTH HILL*    CLOUDY    68  68 100 N3        30.09S
LAWRENCEVILLE* CLOUDY    69  69 100 N5        30.03S
EMPORIA*       FOG       68  68 100 CALM      30.03F VSB 1
$$

VAZ088>098-300700-
SOUTHEAST VIRGINIA

CITY           SKY/WX    TMP DP  RH WIND       PRES   REMARKS
NORFOLK        FAIR      75  71  87 S5        30.02F
VIRGINIA BEACH LGT RAIN  77  71  82 S5        30.02F
NORFOLK NAVAL  CLOUDY    75  72  90 S7        30.03F
WEST POINT*    CLOUDY    72  71  98 CALM      30.04F
SALUDA*        CLOUDY    69  69 100 CALM      30.03S
NEWPORT NEWS   MOCLDY    74  72  93 S5        30.02F
LANGLEY AFB    CLOUDY    74  73  96 S7        30.02F
FORT EUSTIS    CLOUDY    73  29  19 S2        30.01F
WILLIAMSBURG*  MOCLDY    75  73  94 S5        30.03F
HR EXEC AP*    MOCLDY    73  72  94 SE3       30.04F
FRANKLIN*      CLOUDY    71  70  97 CALM      30.03S
US460-WAKEFLD  CLOUDY    73  71  93 CALM      30.02F
$$

VAZ020-022-025-037-045-300700-
WEST CENTRAL AND SOUTHWEST VIRGINIA

CITY           SKY/WX    TMP DP  RH WIND       PRES   REMARKS
STAUNTON*      CLOUDY    60  59  98 SE3       30.10F
WAYNESBORO*    CLOUDY    59  58  96 CALM      30.10F
HOT SPRINGS VA CLOUDY    57  57 100 W3        30.14F
LYNCHBURG      CLOUDY    62  59  90 CALM      30.08S
DANVILLE       FAIR      62  61  96 N3        30.05F
SOUTH BOSTON*  MOCLDY    61  60  95 CALM      30.04S
MARTINSVILLE   CLOUDY    61  60  96 CALM      30.09F
ROANOKE        FAIR      61  59  93 CALM      30.11F
BLACKSBURG     CLOUDY    58  58  99 CALM      30.15F FOG
DUBLIN*        FOG       57  57 100 CALM      30.13F VSB 3/4
MARION*        FAIR      58  57  95 CALM      30.16S FOG
HILLSVILLE*    MOCLDY    56  56 100 CALM      30.13F
RICHLANDS*     FAIR      61  61 100 N3        30.13S
WISE*          FAIR      61  61 100 CALM      30.14S
ABINGDON*      FAIR      64  61  90 E3        30.11S
$$

MDZ021>025-VAZ099-100-300700-
SOUTHERN MARYLAND AND THE DELMARVA PENINSULA

CITY           SKY/WX    TMP DP  RH WIND       PRES   REMARKS
PATUXENT RIVER CLOUDY    72  70  93 SW5       30.03S
BAY BRIDGE APT CLOUDY    70  68  94 CALM      30.03S FOG
LEONARDTOWN    CLOUDY    70  68  94 S3        30.05F
DOVER          CLOUDY    73  73 100 S10       30.01F
GEORGETOWN     LGT RAIN  74  71  91 S9        30.04F
EASTON         CLOUDY    74  74 100 SW7       30.06F FOG
CAMBRIDGE      CLOUDY    72  72 100 S5        30.02F
SALISBURY      CLOUDY    73  71  93 S9        30.03F
OCEAN CITY     CLOUDY   N/A N/A N/A VRB5      30.04F
WALLOPS ISLAND CLOUDY    71  69  93 S12       30.04F
ACCOMACK*      MOCLDY    73  70  88 CALM      30.04S
$$

NCZ012>017-030>032-300700-
NORTH CENTRAL AND EASTERN NORTH CAROLINA

CITY           SKY/WX    TMP DP  RH WIND       PRES   REMARKS
ROANOKE RAPIDS MOCLDY    68  68 100 CALM      30.02F FOG
RALEIGH        CLOUDY    66  64  93 VRB3      30.02F
ELIZABETH CITY CLOUDY    74  72  93 SE5       30.03F
AHOSKIE*       MOCLDY    71  70  98 CALM      30.02F FOG
EDENTON*       CLOUDY   N/A N/A N/A SE3       30.03F
CURRITUCK*     DRIZZLE   75  75 100 CALM      30.04F
KILL DEVIL HLS CLOUDY    73  72  94 SE3       30.02F
MANTEO         NOT AVBL
CAPE HATTERAS  LGT RAIN  74  72  93 S9G18     30.04S
TARBORO*       FAIR      70  69  98 CALM      30.02F FOG
GOLDSBORO      NOT AVBL
WASHINGTON     CLOUDY    72  71  96 E3        30.01F
GREENVILLE     CLOUDY    72  72 100 CALM      30.03F
NEW BERN       MOCLDY    75  71  87 SE6       30.01F
WILMINGTON     LGT RAIN  73  72  96 NE3       29.98F
$$

VAZ048-300700-
ELSEWHERE

CITY           SKY/WX    TMP DP  RH WIND       PRES   REMARKS
HARRISBURG PA  RAIN      64  62  93 NW8       30.03F
BALTIMORE      MOCLDY    66  65  96 CALM      30.03F
ANNAPOLIS      CLOUDY    69  66  90 CALM      30.02S
ANDREWS AFB    CLOUDY    66  64  94 W3        30.03F
PHILADELPHIA   LGT RAIN  70  68  93 E3        30.02F
HENDERSON NC   CLOUDY    63  62  97 N5        30.04S FOG
GREENSBORO     MOCLDY    64  60  87 N5        30.04F
ROCKY MOUNT    MOCLDY    70  70 100 CALM      30.01F
$$

VAZ100-300700-
MARINE

STATION/POSITION TIME  TEMP    WIND        PRES    WAVE   SWELL
                       AIR SEA DIR/SP/G            HT/PER HT/PER
                 (UTC) (F)     (DEG/KT/KT) (MB)    (FT/S) (FT/S)
BRANDYWINE LGT   0500   65     170/ 14/ 16 1017.2F
CAPE MAY NJ      0500   67 69  150/  8/ 12 1017.1F
LEWES DE         0500   72 63  170/  6/ 10 1017.0F
15NM E FENWICK I 0550   67 65              1016.9F   3/ 8
OCEAN-CITY-INLET 0500   66 59  180/  6/  9 1017.8F
WACHAPREAGUE VA  0500   72 77  170/ 10/ 12 1016.6F
THOMAS POINT MD  0600   69 68  140/  2/  2 1018.1F
GOOSES REEF MD   0500   71 69  150/  2/  4 1018.1F   1
COVE POINT MD    0500   70     190/  5/  6 1017.8F
SOLOMONS ISLAND  0500   72 66  190/  5/  6   N/A
BISHOPS HEAD MD  0500   73 75  160/ 11/ 12 1017.2F
PINEY POINT MD   0500          140/  3/  4   N/A
POTOMAC MD       0500   72 72  170/  6/  8 1016.2R   1
CAMBRIDGE MD     0500   73 68  160/  3/  5 1016.2F
LEWISETTA VA     0500   73 73  210/  3/  3 1016.9R
RAPPAHANNOCK LGT 0500          150/ 10/ 11 1017.5F
STINGRAY PT      0510   71     190/  8/ 10 1017.5R
YORK RVR RNG VA  0500   72     170/ 10/ 11 1016.4R
YORKTOWN VA      0500   73 71  170/  2/  3 1016.7R
JAMESTOWN VA     0500   74 74  140/  6/  8   N/A     0
DOMINION TERM VA 0500   74     160/  7/  9 1017.0R
KIPTOPEKE VA     0500      70  160/ 11/ 13   N/A
CHES BAY BRIDGE  0500   73 68  140/  7/  9 1017.0F
CAPE HENRY VA    0500   71     150/  8/ 11   N/A
CHESAPEAKE LGHT  0500   71     150/ 18/ 19 1017.6F
WILLOUBY STN VA  0500   75     170/ 11/ 12 1017.9S
CAPE HENRY BUOY  0512      69                N/A     4/ 6
1ST LANDING BUOY 0500   71 70  140/ 10/ 12 1017.0F   2/ 4
CAPE CHARLES BUO 0526      69                N/A     3/ 6   2/ 7
OFFSHORE WE BUOY 0521      70                N/A     4/ 6   2/ 8
64NM E OF VA BCH 0550   69 64  170/ 12/ 12 1017.4F   5/ 7   5/ 7
DUCK PIER NC     0500   66 59  150/ 11/ 12 1016.6F
44100 DUCK FRF   0524      68                N/A     5/ 6
44056 DUCK FRF   0511      63                N/A     3/ 7
OREGON INLET NC  0500   74 78  150/  8/ 13 1017.4F
HATTERAS NC      0500   76 77  160/  6/  9 1016.8F
DIAMOND SHLS NC  0550   77 81  160/ 16/ 19 1016.6F   6/ 8   3/ 8
CAPE LOOKOUT NC  0C1F1C2F2C3F3C4F4C5F5C6F6C7F7C8M1C9!


USA.gov is the U.S. government's official web portal to all federal, state and local government web resources and services.